Tracking 35275 objects as of 8-Sep-2026
HD Live streaming from Space Station
objects crossing your sky now

HAWK-3B

Track HAWK-3B now!
10-day predictions


NORAD ID: 48931
Int'l Code: 2021-059BE
Launch date: June 30, 2021
Source: United States (US)
Launch site: AIR FORCE EASTERN TEST RANGE (AFETR)
Your satellite tracking list
Your tracking list is empty




NASA's NSSDC Master Catalog

Two Line Element Set (TLE):
1 48931U 21059BE  26251.52917583  .00061672  00000-0  38316-3 0  9994
2 48931  97.6569  96.5553 0003959  31.3852 328.7649 15.76812163290954
Source of the keplerian elements: AFSPC